owner,sensor,date,latitude,longitude,air_temperature,qcFlag 
COMPS,ioos:station:USF.COMPS:EGK:1,2011-09-01T00:00:00Z,27.6010,-82.7510,27.63,1111122 
COMPS,ioos:station:USF.COMPS:EGK:1,2011-09-01T00:06:00Z,27.6010,-82.7510,27.64,1111122 
COMPS,ioos:station:USF.COMPS:EGK:1,2011-09-01T00:12:00Z,27.6010,-82.7510,27.57,1111122 
COMPS,ioos:station:USF.COMPS:EGK:1,2011-09-01T00:18:00Z,27.6010,-82.7510,27.52,1111122 
COMPS,ioos:station:USF.COMPS:EGK:1,2011-09-01T00:24:00Z,27.6010,-82.7510,27.42,1111122 
COMPS,ioos:station:USF.COMPS:EGK:1,2011-09-01T00:30:00Z,27.6010,-82.7510,27.42,1111122 
COMPS,ioos:station:USF.COMPS:EGK:1,2011-09-01T00:36:00Z,27.6010,-82.7510,27.15,1111122 
COMPS,ioos:station:USF.COMPS:EGK:1,2011-09-01T00:42:00Z,27.6010,-82.7510,27.1,1111122 
COMPS,ioos:station:USF.COMPS:EGK:1,2011-09-01T00:48:00Z,27.6010,-82.7510,27.12,1111122 
COMPS,ioos:station:USF.COMPS:EGK:1,2011-09-01T00:54:00Z,27.6010,-82.7510,27.32,1111122 
COMPS,ioos:station:USF.COMPS:EGK:1,2011-09-01T01:00:00Z,27.6010,-82.7510,27.25,1111122 
COMPS,ioos:station:USF.COMPS:EGK:1,2011-09-01T01:06:00Z,27.6010,-82.7510,27.16,1111122 
COMPS,ioos:station:USF.COMPS:EGK:1,2011-09-01T01:12:00Z,27.6010,-82.7510,27.11,1111122 
COMPS,ioos:station:USF.COMPS:EGK:1,2011-09-01T01:18:00Z,27.6010,-82.7510,26.91,1111122 
COMPS,ioos:station:USF.COMPS:EGK:1,2011-09-01T01:24:00Z,27.6010,-82.7510,26.87,1111122 
COMPS,ioos:station:USF.COMPS:EGK:1,2011-09-01T01:30:00Z,27.6010,-82.7510,26.85,1111122 
COMPS,ioos:station:USF.COMPS:EGK:1,2011-09-01T01:36:00Z,27.6010,-82.7510,26.8,1111122 
COMPS,ioos:station:USF.COMPS:EGK:1,2011-09-01T01:42:00Z,27.6010,-82.7510,26.93,1111122 
COMPS,ioos:station:USF.COMPS:EGK:1,2011-09-01T01:48:00Z,27.6010,-82.7510,26.8,1111122 
COMPS,ioos:station:USF.COMPS:EGK:1,2011-09-01T01:54:00Z,27.6010,-82.7510,26.68,1111122 
COMPS,ioos:station:USF.COMPS:EGK:1,2011-09-01T02:00:00Z,27.6010,-82.7510,26.64,1111122 
COMPS,ioos:station:USF.COMPS:EGK:1,2011-09-01T02:06:00Z,27.6010,-82.7510,26.67,1111122 
COMPS,ioos:station:USF.COMPS:EGK:1,2011-09-01T02:12:00Z,27.6010,-82.7510,26.81,1111122 
COMPS,ioos:station:USF.COMPS:EGK:1,2011-09-01T02:18:00Z,27.6010,-82.7510,26.69,1111122 
COMPS,ioos:station:USF.COMPS:EGK:1,2011-09-01T02:24:00Z,27.6010,-82.7510,26.72,1111122 
COMPS,ioos:station:USF.COMPS:EGK:1,2011-09-01T02:30:00Z,27.6010,-82.7510,26.78,1111122 
COMPS,ioos:station:USF.COMPS:EGK:1,2011-09-01T02:36:00Z,27.6010,-82.7510,27.0,1111122 
COMPS,ioos:station:USF.COMPS:EGK:1,2011-09-01T02:42:00Z,27.6010,-82.7510,27.03,1111122 
COMPS,ioos:station:USF.COMPS:EGK:1,2011-09-01T02:48:00Z,27.6010,-82.7510,26.9,1111122 
COMPS,ioos:station:USF.COMPS:EGK:1,2011-09-01T02:54:00Z,27.6010,-82.7510,27.0,1111122 
COMPS,ioos:station:USF.COMPS:EGK:1,2011-09-01T03:00:00Z,27.6010,-82.7510,27.17,1111122 
COMPS,ioos:station:USF.COMPS:EGK:1,2011-09-01T03:06:00Z,27.6010,-82.7510,27.25,1111122 
COMPS,ioos:station:USF.COMPS:EGK:1,2011-09-01T03:12:00Z,27.6010,-82.7510,27.27,1111122 
COMPS,ioos:station:USF.COMPS:EGK:1,2011-09-01T03:18:00Z,27.6010,-82.7510,27.18,1111122 
COMPS,ioos:station:USF.COMPS:EGK:1,2011-09-01T03:24:00Z,27.6010,-82.7510,27.15,1111122 
COMPS,ioos:station:USF.COMPS:EGK:1,2011-09-01T03:30:00Z,27.6010,-82.7510,27.28,1111122 
COMPS,ioos:station:USF.COMPS:EGK:1,2011-09-01T03:36:00Z,27.6010,-82.7510,27.1,1111122 
COMPS,ioos:station:USF.COMPS:EGK:1,2011-09-01T03:42:00Z,27.6010,-82.7510,27.08,1111122 
COMPS,ioos:station:USF.COMPS:EGK:1,2011-09-01T03:48:00Z,27.6010,-82.7510,27.0,1111122 
COMPS,ioos:station:USF.COMPS:EGK:1,2011-09-01T03:54:00Z,27.6010,-82.7510,27.06,1111122 
COMPS,ioos:station:USF.COMPS:EGK:1,2011-09-01T18:00:00Z,27.6010,-82.7510,28.86,1111122 
COMPS,ioos:station:USF.COMPS:EGK:1,2011-09-01T18:06:00Z,27.6010,-82.7510,29.03,1111122 
COMPS,ioos:station:USF.COMPS:EGK:1,2011-09-01T18:12:00Z,27.6010,-82.7510,29.0,1111122 
COMPS,ioos:station:USF.COMPS:EGK:1,2011-09-01T18:18:00Z,27.6010,-82.7510,29.11,1111122 
COMPS,ioos:station:USF.COMPS:EGK:1,2011-09-01T18:24:00Z,27.6010,-82.7510,29.1,1111122 
COMPS,ioos:station:USF.COMPS:EGK:1,2011-09-01T18:30:00Z,27.6010,-82.7510,29.21,1111122 
COMPS,ioos:station:USF.COMPS:EGK:1,2011-09-01T18:36:00Z,27.6010,-82.7510,29.38,1111122 
COMPS,ioos:station:USF.COMPS:EGK:1,2011-09-01T18:42:00Z,27.6010,-82.7510,29.3,1111122 
COMPS,ioos:station:USF.COMPS:EGK:1,2011-09-01T18:48:00Z,27.6010,-82.7510,29.35,1111122 
COMPS,ioos:station:USF.COMPS:EGK:1,2011-09-01T18:54:00Z,27.6010,-82.7510,29.51,1111122 
COMPS,ioos:station:USF.COMPS:EGK:1,2011-09-01T19:00:00Z,27.6010,-82.7510,29.55,1111122 
COMPS,ioos:station:USF.COMPS:EGK:1,2011-09-01T19:06:00Z,27.6010,-82.7510,29.49,1111122 
COMPS,ioos:station:USF.COMPS:EGK:1,2011-09-01T19:12:00Z,27.6010,-82.7510,29.48,1111122 
COMPS,ioos:station:USF.COMPS:EGK:1,2011-09-01T19:18:00Z,27.6010,-82.7510,29.57,1111122 
COMPS,ioos:station:USF.COMPS:EGK:1,2011-09-01T19:24:00Z,27.6010,-82.7510,29.71,1111122 
COMPS,ioos:station:USF.COMPS:EGK:1,2011-09-01T19:30:00Z,27.6010,-82.7510,29.57,1111122 
COMPS,ioos:station:USF.COMPS:EGK:1,2011-09-01T19:36:00Z,27.6010,-82.7510,29.58,1111122 
COMPS,ioos:station:USF.COMPS:EGK:1,2011-09-01T19:42:00Z,27.6010,-82.7510,29.65,1111122 
COMPS,ioos:station:USF.COMPS:EGK:1,2011-09-01T19:48:00Z,27.6010,-82.7510,29.77,1111122 
COMPS,ioos:station:USF.COMPS:EGK:1,2011-09-01T19:54:00Z,27.6010,-82.7510,29.72,1111122 
COMPS,ioos:station:USF.COMPS:EGK:1,2011-09-01T20:00:00Z,27.6010,-82.7510,29.65,1111122 
COMPS,ioos:station:USF.COMPS:EGK:1,2011-09-01T20:06:00Z,27.6010,-82.7510,29.68,1111122 
COMPS,ioos:station:USF.COMPS:EGK:1,2011-09-01T20:12:00Z,27.6010,-82.7510,29.94,1111122 
COMPS,ioos:station:USF.COMPS:EGK:1,2011-09-01T20:18:00Z,27.6010,-82.7510,30.18,1111122 
COMPS,ioos:station:USF.COMPS:EGK:1,2011-09-01T20:24:00Z,27.6010,-82.7510,30.05,1111122 
COMPS,ioos:station:USF.COMPS:EGK:1,2011-09-01T20:30:00Z,27.6010,-82.7510,30.12,1111122 
COMPS,ioos:station:USF.COMPS:EGK:1,2011-09-01T20:36:00Z,27.6010,-82.7510,29.97,1111122 
COMPS,ioos:station:USF.COMPS:EGK:1,2011-09-01T20:42:00Z,27.6010,-82.7510,30.2,1111122 
COMPS,ioos:station:USF.COMPS:EGK:1,2011-09-01T20:48:00Z,27.6010,-82.7510,30.12,1111122 
COMPS,ioos:station:USF.COMPS:EGK:1,2011-09-01T20:54:00Z,27.6010,-82.7510,30.2,1111122 
COMPS,ioos:station:USF.COMPS:EGK:1,2011-09-01T21:00:00Z,27.6010,-82.7510,30.07,1111122 
COMPS,ioos:station:USF.COMPS:EGK:1,2011-09-01T21:06:00Z,27.6010,-82.7510,30.11,1111122 
COMPS,ioos:station:USF.COMPS:EGK:1,2011-09-01T21:12:00Z,27.6010,-82.7510,30.18,1111122 
COMPS,ioos:station:USF.COMPS:EGK:1,2011-09-01T21:18:00Z,27.6010,-82.7510,29.96,1111122 
COMPS,ioos:station:USF.COMPS:EGK:1,2011-09-01T21:24:00Z,27.6010,-82.7510,29.86,1111122 
COMPS,ioos:station:USF.COMPS:EGK:1,2011-09-01T21:30:00Z,27.6010,-82.7510,29.71,1111122 
COMPS,ioos:station:USF.COMPS:EGK:1,2011-09-01T21:36:00Z,27.6010,-82.7510,29.73,1111122 
COMPS,ioos:station:USF.COMPS:EGK:1,2011-09-01T21:42:00Z,27.6010,-82.7510,29.66,1111122 
COMPS,ioos:station:USF.COMPS:EGK:1,2011-09-01T21:48:00Z,27.6010,-82.7510,29.57,1111122 
COMPS,ioos:station:USF.COMPS:EGK:1,2011-09-01T21:54:00Z,27.6010,-82.7510,29.54,1111122 
COMPS,ioos:station:USF.COMPS:EGK:1,2011-09-01T22:00:00Z,27.6010,-82.7510,28.77,1111122 
COMPS,ioos:station:USF.COMPS:EGK:1,2011-09-01T22:06:00Z,27.6010,-82.7510,28.07,1111122 
COMPS,ioos:station:USF.COMPS:EGK:1,2011-09-01T22:12:00Z,27.6010,-82.7510,28.19,1111122 
COMPS,ioos:station:USF.COMPS:EGK:1,2011-09-01T22:18:00Z,27.6010,-82.7510,27.88,1111122 
COMPS,ioos:station:USF.COMPS:EGK:1,2011-09-01T22:24:00Z,27.6010,-82.7510,28.21,1111122 
COMPS,ioos:station:USF.COMPS:EGK:1,2011-09-01T22:30:00Z,27.6010,-82.7510,28.41,1111122 
COMPS,ioos:station:USF.COMPS:EGK:1,2011-09-01T22:36:00Z,27.6010,-82.7510,28.46,1111122 
COMPS,ioos:station:USF.COMPS:EGK:1,2011-09-01T22:42:00Z,27.6010,-82.7510,28.16,1111122 
COMPS,ioos:station:USF.COMPS:EGK:1,2011-09-01T22:48:00Z,27.6010,-82.7510,28.47,1111122 
COMPS,ioos:station:USF.COMPS:EGK:1,2011-09-01T22:54:00Z,27.6010,-82.7510,28.34,1111122 
COMPS,ioos:station:USF.COMPS:EGK:1,2011-09-01T23:00:00Z,27.6010,-82.7510,28.27,1111122 
COMPS,ioos:station:USF.COMPS:EGK:1,2011-09-01T23:06:00Z,27.6010,-82.7510,27.58,1111122 
COMPS,ioos:station:USF.COMPS:EGK:1,2011-09-01T23:12:00Z,27.6010,-82.7510,27.31,1111122 
COMPS,ioos:station:USF.COMPS:EGK:1,2011-09-01T23:18:00Z,27.6010,-82.7510,26.86,1111122 
COMPS,ioos:station:USF.COMPS:EGK:1,2011-09-01T23:24:00Z,27.6010,-82.7510,26.63,1111122 
COMPS,ioos:station:USF.COMPS:EGK:1,2011-09-01T23:30:00Z,27.6010,-82.7510,26.49,1111122 
COMPS,ioos:station:USF.COMPS:EGK:1,2011-09-01T23:36:00Z,27.6010,-82.7510,26.24,1111122 
COMPS,ioos:station:USF.COMPS:EGK:1,2011-09-01T23:42:00Z,27.6010,-82.7510,26.25,1111122 
COMPS,ioos:station:USF.COMPS:EGK:1,2011-09-01T23:48:00Z,27.6010,-82.7510,26.29,1111122 
COMPS,ioos:station:USF.COMPS:EGK:1,2011-09-01T23:54:00Z,27.6010,-82.7510,26.5,1111122 
COMPS,ioos:station:USF.COMPS:EGK:1,2011-09-02T00:00:00Z,27.6010,-82.7510,26.61,1111122 
COMPS,ioos:station:USF.COMPS:EGK:1,2011-09-02T00:06:00Z,27.6010,-82.7510,26.67,1111122 
COMPS,ioos:station:USF.COMPS:EGK:1,2011-09-02T00:12:00Z,27.6010,-82.7510,26.61,1111122 
COMPS,ioos:station:USF.COMPS:EGK:1,2011-09-02T00:18:00Z,27.6010,-82.7510,26.28,1111122 
COMPS,ioos:station:USF.COMPS:EGK:1,2011-09-02T00:24:00Z,27.6010,-82.7510,26.19,1111122 
COMPS,ioos:station:USF.COMPS:EGK:1,2011-09-02T00:30:00Z,27.6010,-82.7510,26.05,1111122 
COMPS,ioos:station:USF.COMPS:EGK:1,2011-09-02T00:36:00Z,27.6010,-82.7510,26.19,1111122 
COMPS,ioos:station:USF.COMPS:EGK:1,2011-09-02T00:42:00Z,27.6010,-82.7510,25.78,1111122 
COMPS,ioos:station:USF.COMPS:EGK:1,2011-09-02T00:48:00Z,27.6010,-82.7510,25.59,1111122 
COMPS,ioos:station:USF.COMPS:EGK:1,2011-09-02T00:54:00Z,27.6010,-82.7510,25.55,1111122 
COMPS,ioos:station:USF.COMPS:EGK:1,2011-09-02T01:00:00Z,27.6010,-82.7510,25.61,1111122 
COMPS,ioos:station:USF.COMPS:EGK:1,2011-09-02T01:06:00Z,27.6010,-82.7510,25.58,1111122 
COMPS,ioos:station:USF.COMPS:EGK:1,2011-09-02T01:12:00Z,27.6010,-82.7510,25.69,1111122 
COMPS,ioos:station:USF.COMPS:EGK:1,2011-09-02T01:18:00Z,27.6010,-82.7510,25.8,1111122 
COMPS,ioos:station:USF.COMPS:EGK:1,2011-09-02T01:24:00Z,27.6010,-82.7510,26.17,1111122 
COMPS,ioos:station:USF.COMPS:EGK:1,2011-09-02T01:30:00Z,27.6010,-82.7510,26.04,1111122 
COMPS,ioos:station:USF.COMPS:EGK:1,2011-09-02T01:36:00Z,27.6010,-82.7510,25.96,1111122 
COMPS,ioos:station:USF.COMPS:EGK:1,2011-09-02T01:42:00Z,27.6010,-82.7510,25.92,1111122 
COMPS,ioos:station:USF.COMPS:EGK:1,2011-09-02T01:48:00Z,27.6010,-82.7510,26.0,1111122 
COMPS,ioos:station:USF.COMPS:EGK:1,2011-09-02T01:54:00Z,27.6010,-82.7510,26.01,1111122 
COMPS,ioos:station:USF.COMPS:EGK:1,2011-09-02T02:00:00Z,27.6010,-82.7510,25.97,1111122 
COMPS,ioos:station:USF.COMPS:EGK:1,2011-09-02T02:06:00Z,27.6010,-82.7510,25.97,1111122 
COMPS,ioos:station:USF.COMPS:EGK:1,2011-09-02T02:12:00Z,27.6010,-82.7510,26.02,1111122 
COMPS,ioos:station:USF.COMPS:EGK:1,2011-09-02T02:18:00Z,27.6010,-82.7510,26.13,1111122 
COMPS,ioos:station:USF.COMPS:EGK:1,2011-09-02T02:24:00Z,27.6010,-82.7510,25.97,1111122 
COMPS,ioos:station:USF.COMPS:EGK:1,2011-09-02T02:30:00Z,27.6010,-82.7510,25.97,1111122 
COMPS,ioos:station:USF.COMPS:EGK:1,2011-09-02T02:36:00Z,27.6010,-82.7510,25.87,1111122 
COMPS,ioos:station:USF.COMPS:EGK:1,2011-09-02T02:42:00Z,27.6010,-82.7510,25.98,1111122 
COMPS,ioos:station:USF.COMPS:EGK:1,2011-09-02T02:48:00Z,27.6010,-82.7510,25.85,1111122 
COMPS,ioos:station:USF.COMPS:EGK:1,2011-09-02T02:54:00Z,27.6010,-82.7510,25.78,1111122 
COMPS,ioos:station:USF.COMPS:EGK:1,2011-09-02T03:00:00Z,27.6010,-82.7510,25.8,1111122 
COMPS,ioos:station:USF.COMPS:EGK:1,2011-09-02T03:06:00Z,27.6010,-82.7510,25.81,1111122 
COMPS,ioos:station:USF.COMPS:EGK:1,2011-09-02T03:12:00Z,27.6010,-82.7510,25.91,1111122 
COMPS,ioos:station:USF.COMPS:EGK:1,2011-09-02T03:18:00Z,27.6010,-82.7510,25.87,1111122 
COMPS,ioos:station:USF.COMPS:EGK:1,2011-09-02T03:24:00Z,27.6010,-82.7510,25.86,1111122 
COMPS,ioos:station:USF.COMPS:EGK:1,2011-09-02T03:30:00Z,27.6010,-82.7510,25.91,1111122 
COMPS,ioos:station:USF.COMPS:EGK:1,2011-09-02T03:36:00Z,27.6010,-82.7510,26.02,1111122 
COMPS,ioos:station:USF.COMPS:EGK:1,2011-09-02T03:42:00Z,27.6010,-82.7510,25.96,1111122 
COMPS,ioos:station:USF.COMPS:EGK:1,2011-09-02T03:48:00Z,27.6010,-82.7510,25.97,1111122 
COMPS,ioos:station:USF.COMPS:EGK:1,2011-09-02T03:54:00Z,27.6010,-82.7510,26.01,1111122 
COMPS,ioos:station:USF.COMPS:EGK:1,2011-09-02T04:00:00Z,27.6010,-82.7510,26.15,1111122 
COMPS,ioos:station:USF.COMPS:EGK:1,2011-09-02T04:06:00Z,27.6010,-82.7510,26.12,1111122 
COMPS,ioos:station:USF.COMPS:EGK:1,2011-09-02T04:12:00Z,27.6010,-82.7510,26.1,1111122 
COMPS,ioos:station:USF.COMPS:EGK:1,2011-09-02T04:18:00Z,27.6010,-82.7510,26.19,1111122 
COMPS,ioos:station:USF.COMPS:EGK:1,2011-09-02T04:24:00Z,27.6010,-82.7510,26.21,1111122 
COMPS,ioos:station:USF.COMPS:EGK:1,2011-09-02T04:30:00Z,27.6010,-82.7510,26.16,1111122 
COMPS,ioos:station:USF.COMPS:EGK:1,2011-09-02T04:36:00Z,27.6010,-82.7510,26.14,1111122 
COMPS,ioos:station:USF.COMPS:EGK:1,2011-09-02T04:42:00Z,27.6010,-82.7510,26.18,1111122 
COMPS,ioos:station:USF.COMPS:EGK:1,2011-09-02T04:48:00Z,27.6010,-82.7510,26.3,1111122 
COMPS,ioos:station:USF.COMPS:EGK:1,2011-09-02T04:54:00Z,27.6010,-82.7510,26.27,1111122 
COMPS,ioos:station:USF.COMPS:EGK:1,2011-09-02T05:00:00Z,27.6010,-82.7510,26.26,1111122 
COMPS,ioos:station:USF.COMPS:EGK:1,2011-09-02T05:06:00Z,27.6010,-82.7510,26.31,1111122 
COMPS,ioos:station:USF.COMPS:EGK:1,2011-09-02T05:12:00Z,27.6010,-82.7510,26.38,1111122 
COMPS,ioos:station:USF.COMPS:EGK:1,2011-09-02T05:18:00Z,27.6010,-82.7510,26.54,1111122 
COMPS,ioos:station:USF.COMPS:EGK:1,2011-09-02T05:24:00Z,27.6010,-82.7510,26.39,1111122 
COMPS,ioos:station:USF.COMPS:EGK:1,2011-09-02T05:30:00Z,27.6010,-82.7510,26.52,1111122 
COMPS,ioos:station:USF.COMPS:EGK:1,2011-09-02T05:36:00Z,27.6010,-82.7510,26.43,1111122 
COMPS,ioos:station:USF.COMPS:EGK:1,2011-09-02T05:42:00Z,27.6010,-82.7510,26.55,1111122 
COMPS,ioos:station:USF.COMPS:EGK:1,2011-09-02T05:48:00Z,27.6010,-82.7510,26.59,1111122 
COMPS,ioos:station:USF.COMPS:EGK:1,2011-09-02T05:54:00Z,27.6010,-82.7510,26.51,1111122 
COMPS,ioos:station:USF.COMPS:EGK:1,2011-09-02T06:00:00Z,27.6010,-82.7510,26.55,1111122 
COMPS,ioos:station:USF.COMPS:EGK:1,2011-09-02T06:06:00Z,27.6010,-82.7510,26.63,1111122 
COMPS,ioos:station:USF.COMPS:EGK:1,2011-09-02T06:12:00Z,27.6010,-82.7510,26.63,1111122 
COMPS,ioos:station:USF.COMPS:EGK:1,2011-09-02T06:18:00Z,27.6010,-82.7510,26.44,1111122 
COMPS,ioos:station:USF.COMPS:EGK:1,2011-09-02T06:24:00Z,27.6010,-82.7510,26.48,1111122 
COMPS,ioos:station:USF.COMPS:EGK:1,2011-09-02T06:30:00Z,27.6010,-82.7510,26.52,1111122 
COMPS,ioos:station:USF.COMPS:EGK:1,2011-09-02T06:36:00Z,27.6010,-82.7510,26.6,1111122 
COMPS,ioos:station:USF.COMPS:EGK:1,2011-09-02T06:42:00Z,27.6010,-82.7510,26.6,1111122 
COMPS,ioos:station:USF.COMPS:EGK:1,2011-09-02T06:48:00Z,27.6010,-82.7510,26.62,1111122 
COMPS,ioos:station:USF.COMPS:EGK:1,2011-09-02T06:54:00Z,27.6010,-82.7510,26.66,1111122 
COMPS,ioos:station:USF.COMPS:EGK:1,2011-09-02T07:00:00Z,27.6010,-82.7510,26.81,1111122 
COMPS,ioos:station:USF.COMPS:EGK:1,2011-09-02T07:06:00Z,27.6010,-82.7510,26.75,1111122 
COMPS,ioos:station:USF.COMPS:EGK:1,2011-09-02T07:12:00Z,27.6010,-82.7510,26.64,1111122 
COMPS,ioos:station:USF.COMPS:EGK:1,2011-09-02T07:18:00Z,27.6010,-82.7510,26.64,1111122 
COMPS,ioos:station:USF.COMPS:EGK:1,2011-09-02T07:24:00Z,27.6010,-82.7510,26.61,1111122 
COMPS,ioos:station:USF.COMPS:EGK:1,2011-09-02T07:30:00Z,27.6010,-82.7510,26.58,1111122 
COMPS,ioos:station:USF.COMPS:EGK:1,2011-09-02T07:36:00Z,27.6010,-82.7510,26.41,1111122 
COMPS,ioos:station:USF.COMPS:EGK:1,2011-09-02T07:42:00Z,27.6010,-82.7510,26.41,1111122 
COMPS,ioos:station:USF.COMPS:EGK:1,2011-09-02T07:48:00Z,27.6010,-82.7510,26.4,1111122 
COMPS,ioos:station:USF.COMPS:EGK:1,2011-09-02T07:54:00Z,27.6010,-82.7510,26.48,1111122 
COMPS,ioos:station:USF.COMPS:EGK:1,2011-09-02T08:00:00Z,27.6010,-82.7510,26.21,1111122 
COMPS,ioos:station:USF.COMPS:EGK:1,2011-09-02T08:06:00Z,27.6010,-82.7510,26.13,1111122 
COMPS,ioos:station:USF.COMPS:EGK:1,2011-09-02T08:12:00Z,27.6010,-82.7510,26.12,1111122 
COMPS,ioos:station:USF.COMPS:EGK:1,2011-09-02T08:18:00Z,27.6010,-82.7510,26.2,1111122 
COMPS,ioos:station:USF.COMPS:EGK:1,2011-09-02T08:24:00Z,27.6010,-82.7510,26.12,1111122 
COMPS,ioos:station:USF.COMPS:EGK:1,2011-09-02T08:30:00Z,27.6010,-82.7510,26.04,1111122 
COMPS,ioos:station:USF.COMPS:EGK:1,2011-09-02T08:36:00Z,27.6010,-82.7510,26.02,1111122 
COMPS,ioos:station:USF.COMPS:EGK:1,2011-09-02T08:42:00Z,27.6010,-82.7510,26.26,1111122 
COMPS,ioos:station:USF.COMPS:EGK:1,2011-09-02T08:48:00Z,27.6010,-82.7510,26.12,1111122 
COMPS,ioos:station:USF.COMPS:EGK:1,2011-09-02T08:54:00Z,27.6010,-82.7510,26.02,1111122 
COMPS,ioos:station:USF.COMPS:EGK:1,2011-09-02T09:00:00Z,27.6010,-82.7510,26.0,1111122 
COMPS,ioos:station:USF.COMPS:EGK:1,2011-09-02T09:06:00Z,27.6010,-82.7510,26.11,1111122 
COMPS,ioos:station:USF.COMPS:EGK:1,2011-09-02T09:12:00Z,27.6010,-82.7510,26.11,1111122 
COMPS,ioos:station:USF.COMPS:EGK:1,2011-09-02T09:18:00Z,27.6010,-82.7510,25.98,1111122 
COMPS,ioos:station:USF.COMPS:EGK:1,2011-09-02T09:24:00Z,27.6010,-82.7510,26.07,1111122 
COMPS,ioos:station:USF.COMPS:EGK:1,2011-09-02T09:30:00Z,27.6010,-82.7510,26.03,1111122 
COMPS,ioos:station:USF.COMPS:EGK:1,2011-09-02T09:36:00Z,27.6010,-82.7510,26.08,1111122 
COMPS,ioos:station:USF.COMPS:EGK:1,2011-09-02T09:42:00Z,27.6010,-82.7510,25.94,1111122 
COMPS,ioos:station:USF.COMPS:EGK:1,2011-09-02T09:48:00Z,27.6010,-82.7510,25.87,1111122 
COMPS,ioos:station:USF.COMPS:EGK:1,2011-09-02T09:54:00Z,27.6010,-82.7510,25.82,1111122 
COMPS,ioos:station:USF.COMPS:EGK:1,2011-09-02T10:00:00Z,27.6010,-82.7510,25.89,1111122 
COMPS,ioos:station:USF.COMPS:EGK:1,2011-09-02T10:06:00Z,27.6010,-82.7510,25.79,1111122 
COMPS,ioos:station:USF.COMPS:EGK:1,2011-09-02T10:12:00Z,27.6010,-82.7510,25.69,1111122 
COMPS,ioos:station:USF.COMPS:EGK:1,2011-09-02T10:18:00Z,27.6010,-82.7510,25.67,1111122 
COMPS,ioos:station:USF.COMPS:EGK:1,2011-09-02T10:24:00Z,27.6010,-82.7510,25.75,1111122 
COMPS,ioos:station:USF.COMPS:EGK:1,2011-09-02T10:30:00Z,27.6010,-82.7510,25.66,1111122 
COMPS,ioos:station:USF.COMPS:EGK:1,2011-09-02T10:36:00Z,27.6010,-82.7510,25.53,1111122 
COMPS,ioos:station:USF.COMPS:EGK:1,2011-09-02T10:42:00Z,27.6010,-82.7510,25.48,1111122 
COMPS,ioos:station:USF.COMPS:EGK:1,2011-09-02T10:48:00Z,27.6010,-82.7510,25.43,1111122 
COMPS,ioos:station:USF.COMPS:EGK:1,2011-09-02T10:54:00Z,27.6010,-82.7510,25.56,1111122 
COMPS,ioos:station:USF.COMPS:EGK:1,2011-09-02T11:00:00Z,27.6010,-82.7510,25.47,1111122 
COMPS,ioos:station:USF.COMPS:EGK:1,2011-09-02T11:06:00Z,27.6010,-82.7510,25.41,1111122 
COMPS,ioos:station:USF.COMPS:EGK:1,2011-09-02T11:12:00Z,27.6010,-82.7510,25.4,1111122 
COMPS,ioos:station:USF.COMPS:EGK:1,2011-09-02T11:18:00Z,27.6010,-82.7510,25.49,1111122 
COMPS,ioos:station:USF.COMPS:EGK:1,2011-09-02T11:24:00Z,27.6010,-82.7510,25.44,1111122 
COMPS,ioos:station:USF.COMPS:EGK:1,2011-09-02T11:30:00Z,27.6010,-82.7510,25.54,1111122 
COMPS,ioos:station:USF.COMPS:EGK:1,2011-09-02T11:36:00Z,27.6010,-82.7510,25.5,1111122 
COMPS,ioos:station:USF.COMPS:EGK:1,2011-09-02T11:42:00Z,27.6010,-82.7510,25.58,1111122 
COMPS,ioos:station:USF.COMPS:EGK:1,2011-09-02T11:48:00Z,27.6010,-82.7510,25.61,1111122 
COMPS,ioos:station:USF.COMPS:EGK:1,2011-09-02T11:54:00Z,27.6010,-82.7510,25.45,1111122 
COMPS,ioos:station:USF.COMPS:EGK:1,2011-09-02T12:00:00Z,27.6010,-82.7510,25.5,1111122 
COMPS,ioos:station:USF.COMPS:EGK:1,2011-09-02T12:06:00Z,27.6010,-82.7510,25.43,1111122 
COMPS,ioos:station:USF.COMPS:EGK:1,2011-09-02T12:12:00Z,27.6010,-82.7510,25.64,1111122 
COMPS,ioos:station:USF.COMPS:EGK:1,2011-09-02T12:18:00Z,27.6010,-82.7510,25.67,1111122 
COMPS,ioos:station:USF.COMPS:EGK:1,2011-09-02T12:24:00Z,27.6010,-82.7510,25.7,1111122 
COMPS,ioos:station:USF.COMPS:EGK:1,2011-09-02T12:30:00Z,27.6010,-82.7510,25.76,1111122 
COMPS,ioos:station:USF.COMPS:EGK:1,2011-09-02T12:36:00Z,27.6010,-82.7510,25.9,1111122 
COMPS,ioos:station:USF.COMPS:EGK:1,2011-09-02T12:42:00Z,27.6010,-82.7510,25.71,1111122 
COMPS,ioos:station:USF.COMPS:EGK:1,2011-09-02T12:48:00Z,27.6010,-82.7510,25.81,1111122 
COMPS,ioos:station:USF.COMPS:EGK:1,2011-09-02T12:54:00Z,27.6010,-82.7510,25.84,1111122 
COMPS,ioos:station:USF.COMPS:EGK:1,2011-09-02T13:00:00Z,27.6010,-82.7510,25.83,1111122 
COMPS,ioos:station:USF.COMPS:EGK:1,2011-09-02T13:06:00Z,27.6010,-82.7510,25.84,1111122 
COMPS,ioos:station:USF.COMPS:EGK:1,2011-09-02T13:12:00Z,27.6010,-82.7510,25.79,1111122 
COMPS,ioos:station:USF.COMPS:EGK:1,2011-09-02T13:18:00Z,27.6010,-82.7510,25.86,1111122 
COMPS,ioos:station:USF.COMPS:EGK:1,2011-09-02T13:24:00Z,27.6010,-82.7510,25.91,1111122 
COMPS,ioos:station:USF.COMPS:EGK:1,2011-09-02T13:30:00Z,27.6010,-82.7510,26.02,1111122 
COMPS,ioos:station:USF.COMPS:EGK:1,2011-09-02T13:36:00Z,27.6010,-82.7510,25.97,1111122 
COMPS,ioos:station:USF.COMPS:EGK:1,2011-09-02T13:42:00Z,27.6010,-82.7510,26.14,1111122 
COMPS,ioos:station:USF.COMPS:EGK:1,2011-09-02T13:48:00Z,27.6010,-82.7510,26.13,1111122 
COMPS,ioos:station:USF.COMPS:EGK:1,2011-09-02T13:54:00Z,27.6010,-82.7510,26.29,1111122 
COMPS,ioos:station:USF.COMPS:EGK:1,2011-09-02T14:00:00Z,27.6010,-82.7510,26.24,1111122 
COMPS,ioos:station:USF.COMPS:EGK:1,2011-09-02T14:06:00Z,27.6010,-82.7510,26.25,1111122 
COMPS,ioos:station:USF.COMPS:EGK:1,2011-09-02T14:12:00Z,27.6010,-82.7510,26.39,1111122 
COMPS,ioos:station:USF.COMPS:EGK:1,2011-09-02T14:18:00Z,27.6010,-82.7510,26.43,1111122 
COMPS,ioos:station:USF.COMPS:EGK:1,2011-09-02T14:24:00Z,27.6010,-82.7510,26.5,1111122 
COMPS,ioos:station:USF.COMPS:EGK:1,2011-09-02T14:30:00Z,27.6010,-82.7510,26.43,1111122 
COMPS,ioos:station:USF.COMPS:EGK:1,2011-09-02T14:36:00Z,27.6010,-82.7510,26.49,1111122 
COMPS,ioos:station:USF.COMPS:EGK:1,2011-09-02T14:42:00Z,27.6010,-82.7510,26.62,1111122 
COMPS,ioos:station:USF.COMPS:EGK:1,2011-09-02T14:48:00Z,27.6010,-82.7510,26.71,1111122 
COMPS,ioos:station:USF.COMPS:EGK:1,2011-09-02T14:54:00Z,27.6010,-82.7510,26.77,1111122 
COMPS,ioos:station:USF.COMPS:EGK:1,2011-09-02T15:00:00Z,27.6010,-82.7510,26.84,1111122 
COMPS,ioos:station:USF.COMPS:EGK:1,2011-09-02T15:06:00Z,27.6010,-82.7510,26.94,1111122 
COMPS,ioos:station:USF.COMPS:EGK:1,2011-09-02T15:12:00Z,27.6010,-82.7510,27.21,1111122 
COMPS,ioos:station:USF.COMPS:EGK:1,2011-09-02T15:18:00Z,27.6010,-82.7510,27.12,1111122 
COMPS,ioos:station:USF.COMPS:EGK:1,2011-09-02T15:24:00Z,27.6010,-82.7510,27.25,1111122 
COMPS,ioos:station:USF.COMPS:EGK:1,2011-09-02T15:30:00Z,27.6010,-82.7510,27.37,1111122 
COMPS,ioos:station:USF.COMPS:EGK:1,2011-09-02T15:36:00Z,27.6010,-82.7510,27.59,1111122 
COMPS,ioos:station:USF.COMPS:EGK:1,2011-09-02T15:42:00Z,27.6010,-82.7510,27.66,1111122 
COMPS,ioos:station:USF.COMPS:EGK:1,2011-09-02T15:48:00Z,27.6010,-82.7510,27.74,1111122 
COMPS,ioos:station:USF.COMPS:EGK:1,2011-09-02T15:54:00Z,27.6010,-82.7510,27.85,1111122 
COMPS,ioos:station:USF.COMPS:EGK:1,2011-09-02T17:00:00Z,27.6010,-82.7510,29.13,1111122 
COMPS,ioos:station:USF.COMPS:EGK:1,2011-09-02T17:06:00Z,27.6010,-82.7510,29.15,1111122 
COMPS,ioos:station:USF.COMPS:EGK:1,2011-09-02T17:12:00Z,27.6010,-82.7510,29.26,1111122 
COMPS,ioos:station:USF.COMPS:EGK:1,2011-09-02T17:18:00Z,27.6010,-82.7510,29.39,1111122 
COMPS,ioos:station:USF.COMPS:EGK:1,2011-09-02T17:24:00Z,27.6010,-82.7510,29.52,1111122 
COMPS,ioos:station:USF.COMPS:EGK:1,2011-09-02T17:30:00Z,27.6010,-82.7510,29.47,1111122 
COMPS,ioos:station:USF.COMPS:EGK:1,2011-09-02T17:36:00Z,27.6010,-82.7510,29.53,1111122 
COMPS,ioos:station:USF.COMPS:EGK:1,2011-09-02T17:42:00Z,27.6010,-82.7510,29.62,1111122 
COMPS,ioos:station:USF.COMPS:EGK:1,2011-09-02T17:48:00Z,27.6010,-82.7510,29.76,1111122 
COMPS,ioos:station:USF.COMPS:EGK:1,2011-09-02T17:54:00Z,27.6010,-82.7510,29.68,1111122 
COMPS,ioos:station:USF.COMPS:EGK:1,2011-09-02T18:00:00Z,27.6010,-82.7510,29.73,1111122 
COMPS,ioos:station:USF.COMPS:EGK:1,2011-09-02T18:06:00Z,27.6010,-82.7510,29.79,1111122 